Regional Weather Roundup
Issued by NWS

Home | Current Version | Previous Version | Graphics & Text | Print | Product List | Glossary Off
Versions: 1 2 3 4 5 6 7 8 9 10 11 12 13 14 15 16 17 18 19 20 21 22 23 24 25 26 27 28 29 30 31 32 33 34 35 36 37 38 39 40 41 42 43 44 45 46 47 48 49 50

000
ASUS43 KTOP 271559
RWRKS

WEATHER ROUNDUP FOR KANSAS
NATIONAL WEATHER SERVICE GOODLAND KS
1100 AM CDT WED JUL 27 2016

NOTE:  "FAIR" INDICATES FEW OR NO CLOUDS BELOW 12,000 FEET WITH NO
SIGNIFICANT WEATHER AND/OR OBSTRUCTIONS TO VISIBILITY.

KSZ001>006-013>018-027>032-041>047-271700-
NORTHWEST KANSAS

CITY           SKY/WX    TMP DP  RH WIND       PRES   REMARKS
GOODLAND       SUNNY     76  66  71 SW7       30.13R
HAYS           MOSUNNY   81  63  54 S3        30.04R
HILL CITY      PTSUNNY   79  64  60 CALM      30.06R
RUSSELL        CLOUDY    81  70  69 E5        30.02S
$$

KSZ061>065-074>080-084>089-271700-
SOUTHWEST KANSAS

CITY           SKY/WX    TMP DP  RH WIND       PRES   REMARKS
DODGE CITY     CLOUDY    79  70  74 SW13      30.04S
ELKHART          N/A     81  69  67 SE3         N/A
GARDEN CITY    SUNNY     81  70  69 S15       30.05F
GREAT BEND     CLOUDY    81  70  69 NE5       30.03R
LIBERAL        SUNNY     84  70  61 SE12      30.09S
$$

KSZ066>073-081>083-090>101-271700-
SOUTHEAST KANSAS

CITY           SKY/WX    TMP DP  RH WIND       PRES   REMARKS
CHANUTE        SUNNY     84  74  71 S5        29.98S
COFFEYVILLE    CLOUDY    81  74  79 CALM      29.97F
HUTCHINSON     MOSUNNY   83  73  72 SE7       29.99S
NEWTON         PTSUNNY   82  74  76 E10       30.01S
PARSONS        MOSUNNY   81  74  79 S5        30.00R
WICHITA INTL   PTSUNNY   84  74  71 SE7       29.99R
WICHITA JABRA  PTSUNNY   82  74  76 SE7       29.99S
WICHITA MCCONL PTSUNNY   83  73  72 SE6       30.00R
WINFIELD       MOSUNNY   83  74  74 E8        29.99S
$$

KSZ007>012-019>026-033>040-048>060-102>105-271700-
NORTHEAST KANSAS

CITY           SKY/WX    TMP DP  RH WIND       PRES   REMARKS
CONCORDIA      CLOUDY    79  69  71 E3        30.03S
EMPORIA        MOSUNNY   84  73  69 S12       29.99R
LAWRENCE       SUNNY     84  70  62 SE7       29.98F
MANHATTAN      MOSUNNY   84  72  67 SE5       30.01R
OLATHE IND     SUNNY     85  69  58 NE6       30.00F
OLATHE EXE     SUNNY     83  69  62 E7        29.99F
SALINA         CLOUDY    85  72  65 CALM      30.01R
TOPEKA BILLARD SUNNY     84  70  62 SE5       29.99R
TOPEKA FORBES  SUNNY     86  71  60 VRB5      30.00R
$$




USA.gov is the U.S. government's official web portal to all federal, state and local government web resources and services.